Location: Newark
(49.5647°N, 8.2922°E)
Time: 09:17:55
(UTC+00:00)

Transit 2A - Pass Details

Date: 20 February 2020
Orbit: 597 x 961 km, 66.7° (Epoch: 28 March)

Event Time Altitude Azimuth Distance (km) Brightness Sun altitude
Rises 11:40:35 0° 155° (SSE) 2,832 9.9 29.4°
Reaches altitude 10° 11:45:00 10° 112° (ESE) 1,935 8.4 29.4°
Maximum altitude 11:45:33 10° 104° (ESE) 1,924 8.3 29.4°
Drops below altitude 10° 11:46:06 10° 97° (E) 1,942 8.3 29.4°
Sets 11:50:35 0° 54° (NE) 2,894 8.7 29.4°
